Change the Weather History Date:

Thursday, July 3, 2014

  Actual Average Record
Temperature  
Mean Temperature 79 °F 77 °F  
Max Temperature 94 °F 93 °F 102 °F (2007)
Min Temperature 63 °F 62 °F 48 °F (1921)
Degree Days  
Heating Degree Days 0 0  
Month to date heating degree days 0 0  
Since 1 June heating degree days 19 22  
Since 1 July heating degree days 0 0  
Cooling Degree Days 14 12  
Month to date cooling degree days 40 36  
Year to date cooling degree days 297 318  
Since 1 June cooling degree days 238 267  
Growing Degree Days 28 (Base 50)    
Moisture  
Dew Point 35 °F    
Average Humidity 22    
Maximum Humidity 31    
Minimum Humidity 13    
Precipitation  
Precipitation T in 0.01 in 0.65 in (1897)
Month to date precipitation T 0.04  
Year to date precipitation 3.91 4.33  
Snow  
Snow 0.00 in 0.00 in 0.00 in (2013)
Month to date snowfall 0.0 0.0  
Since 1 June snowfall 0.0 0.0  
Since 1 July snowfall 0.0 0.0  
Snow Depth 0.00 in    
Sea Level Pressure  
Sea Level Pressure 29.89 in    
Wind  
Wind Speed 9 mph (SE)    
Max Wind Speed 31 mph    
Max Gust Speed 42 mph    
Visibility 10 miles    
Events Rain    
T = Trace of Precipitation, MM = Missing Value Source: NWS Daily Summary

Daily Weather History Graph

Daily Weather History Graph

Search for Another Location

Airport or City:

Trip Planner

Search our weather history database for the weather conditions in past years. The results will help you decide how hot, cold, wet, or windy it might be!

Date:

Astronomy

Jul. 03, 2014 Rise Set
Actual Time 5:52 AM MDT 8:43 PM MDT
Civil Twilight 5:20 AM MDT 9:15 PM MDT
Nautical Twilight 4:40 AM MDT 9:55 PM MDT
Astronomical Twilight 3:54 AM MDT 10:42 PM MDT
Moon 11:52 AM MDT (7/3) No Moon Set
Length of Visible Light 15h 54m
Length of Day
14h 51m
Waxing Crescent, 33% of the Moon is Illuminated
Jul 3
Waxing Crescent
Jul 5
First Quarter
Jul 12
Full
Jul 18
Last Quarter
Jul 26
New

Hourly Weather History & Observations

Time (MDT) Temp. Dew Point Humidity Pressure Visibility Wind Dir Wind Speed Gust Speed Precip Events Conditions
12:53 AM 73.0 °F 26.1 °F 17% 29.83 in 10.0 mi East 4.6 mph - N/A   Clear
1:53 AM 66.9 °F 33.1 °F 28% 29.83 in 10.0 mi SE 3.5 mph - N/A   Clear
2:53 AM 66.0 °F 30.0 °F 26% 29.84 in 10.0 mi ESE 11.5 mph - N/A   Clear
3:53 AM 66.0 °F 30.9 °F 27% 29.84 in 10.0 mi ESE 15.0 mph - N/A   Clear
4:53 AM 64.0 °F 30.0 °F 28% 29.87 in 10.0 mi SE 9.2 mph - N/A   Clear
5:53 AM 63.0 °F 30.9 °F 30% 29.89 in 10.0 mi Calm Calm - N/A   Clear
6:53 AM 64.9 °F 33.1 °F 31% 29.91 in 10.0 mi East 4.6 mph - N/A   Clear
7:53 AM 69.8 °F 33.8 °F 27% 30.15 in 10.0 mi ESE 6.9 mph - N/A   Clear
8:53 AM 73.9 °F 35.1 °F 24% 29.95 in 10.0 mi SSE 4.6 mph - N/A   Clear
9:53 AM 78.1 °F 34.0 °F 20% 29.94 in 10.0 mi Calm Calm - N/A   Clear
10:53 AM 82.0 °F 35.1 °F 18% 29.94 in 10.0 mi Calm Calm - N/A   Clear
11:53 AM 84.0 °F 39.0 °F 20% 29.93 in 10.0 mi West 6.9 mph - N/A   Clear
12:53 PM 84.2 °F 37.4 °F 19% 30.13 in 10.0 mi West 8.1 mph - N/A   Clear
1:53 PM 91.9 °F 37.9 °F 15% 29.86 in 10.0 mi NNW 11.5 mph - N/A   Clear
2:53 PM 91.0 °F 34.0 °F 13% 29.85 in 10.0 mi Variable 4.6 mph - N/A   Clear
3:53 PM 91.0 °F 35.1 °F 14% 29.83 in 10.0 mi West 10.4 mph - N/A   Clear
4:53 PM 89.1 °F 39.9 °F 18% 29.84 in 10.0 mi South 11.5 mph - N/A   Clear
5:53 PM 88.0 °F 33.1 °F 14% 29.83 in 10.0 mi SSE 28.8 mph 42.6 mph 0.00 in Rain Light Rain
6:53 PM 91.9 °F 30.0 °F 11% 29.81 in 10.0 mi SSE 6.9 mph - 0.00 in   Partly Cloudy
7:53 PM 84.0 °F 39.0 °F 20% 29.84 in 10.0 mi SSE 18.4 mph 24.2 mph N/A   Scattered Clouds
8:53 PM 80.1 °F 39.9 °F 24% 29.86 in 10.0 mi East 10.4 mph - N/A   Clear
9:53 PM 79.0 °F 39.9 °F 25% 29.86 in 10.0 mi ESE 10.4 mph - N/A   Clear
10:53 PM 77.0 °F 39.0 °F 25% 29.88 in 10.0 mi East 9.2 mph - N/A   Clear
11:53 PM 75.0 °F 39.0 °F 27% 29.88 in 10.0 mi ESE 8.1 mph - N/A   Clear